Sturgeon Bay, WI

4:56 PM CDT on April 27, 2017 (GMT -0500)
Door County Cherryland

Weather History for KSUE - January, 2013

Change the Weather History Date:

Thursday, January 24, 2013

  Actual Average Record
Temperature  
Mean Temperature 6 °F -  
Max Temperature 12 °F 28 °F 44 °F (1947)
Min Temperature 1 °F 12 °F -25 °F (1935)
Degree Days  
Heating Degree Days 58    
Moisture  
Dew Point -2 °F    
Average Humidity 65    
Maximum Humidity 85    
Minimum Humidity 56    
Precipitation  
Precipitation 0.00 in - - ()
Sea Level Pressure  
Sea Level Pressure 30.50 in    
Wind  
Wind Speed 10 mph (NNW)    
Max Wind Speed 16 mph    
Max Gust Speed 24 mph    
Visibility 10 miles    
Events      
Averages and records for this station are not official NWS values.
T = Trace of Precipitation, MM = Missing Value Source: NWS Daily Summary

Daily Weather History Graph

Daily Weather History Graph

Search for Another Location

Airport or City:

Trip Planner

Search our weather history database for the weather conditions in past years. The results will help you decide how hot, cold, wet, or windy it might be!

Date:

Astronomy

Jan. 24, 2013 Rise Set
Actual Time 7:17 AM CST 4:47 PM CST
Civil Twilight 6:45 AM CST 5:19 PM CST
Nautical Twilight 6:09 AM CST 5:54 PM CST
Astronomical Twilight 5:34 AM CST 6:29 PM CST
Moon 2:47 PM CST (1/24) 5:15 AM CST (1/24)
Length of Visible Light 10h 33m
Length of Day
9h 30m
Waxing Gibbous, 94% of the Moon is Illuminated
Jan 24
Waxing Gibbous
Jan 26
Full
Feb 3
Last Quarter
Feb 10
New
Feb 17
First Quarter

Hourly Weather History & Observations

Time (CST) Temp. Windchill Dew Point Humidity Pressure Visibility Wind Dir Wind Speed Gust Speed Precip Events Conditions
12:15 AM 5.0 °F -13.0 °F -4.0 °F 66% 30.35 in 10.0 mi NNW 15.0 mph 24.2 mph N/A   Clear
12:35 AM 5.0 °F -13.0 °F -4.0 °F 66% 30.36 in 10.0 mi NNW 15.0 mph - N/A   Clear
12:55 AM 5.0 °F -13.0 °F -5.8 °F 61% 30.37 in 10.0 mi North 15.0 mph 20.7 mph N/A   Clear
1:15 AM 5.0 °F -12.3 °F -5.8 °F 61% 30.38 in 10.0 mi North 13.8 mph 24.2 mph N/A   Clear
1:35 AM 3.2 °F -15.9 °F -4.0 °F 72% 30.40 in 10.0 mi NNW 16.1 mph 21.9 mph N/A   Clear
1:55 AM 3.2 °F -15.3 °F -4.0 °F 72% 30.41 in 10.0 mi NNW 15.0 mph 21.9 mph N/A   Clear
2:15 AM 3.2 °F -14.6 °F -5.8 °F 66% 30.43 in 10.0 mi NNW 13.8 mph 20.7 mph N/A   Clear
2:35 AM 3.2 °F -14.6 °F -4.0 °F 72% 30.44 in 10.0 mi NNW 13.8 mph 19.6 mph N/A   Clear
2:55 AM 3.2 °F -12.2 °F -5.8 °F 66% 30.45 in 10.0 mi NNW 10.4 mph - N/A   Clear
3:15 AM 3.2 °F -15.3 °F -5.8 °F 66% 30.46 in 10.0 mi NNW 15.0 mph 18.4 mph N/A   Clear
3:35 AM 3.2 °F -13.9 °F -4.0 °F 72% 30.48 in 10.0 mi NNW 12.7 mph - N/A   Clear
3:55 AM 3.2 °F -14.6 °F -5.8 °F 66% 30.48 in 10.0 mi North 13.8 mph 20.7 mph N/A   Clear
4:15 AM 3.2 °F -15.3 °F -5.8 °F 66% 30.49 in 10.0 mi NNW 15.0 mph 18.4 mph N/A   Clear
4:35 AM 3.2 °F -14.6 °F -5.8 °F 66% 30.49 in 10.0 mi North 13.8 mph - N/A   Clear
4:55 AM 3.2 °F -13.9 °F -5.8 °F 66% 30.50 in 10.0 mi North 12.7 mph 19.6 mph N/A   Clear
5:15 AM 3.2 °F -13.1 °F -5.8 °F 66% 30.51 in 10.0 mi North 11.5 mph - N/A   Clear
5:35 AM 3.2 °F -13.1 °F -5.8 °F 66% 30.52 in 10.0 mi North 11.5 mph - N/A   Clear
5:55 AM 3.2 °F -13.9 °F -5.8 °F 66% 30.54 in 10.0 mi North 12.7 mph - N/A   Clear
6:15 AM 1.4 °F -16.1 °F -7.6 °F 66% 30.54 in 10.0 mi North 12.7 mph - N/A   Clear
6:35 AM 1.4 °F -14.5 °F -4.0 °F 78% 30.54 in 10.0 mi North 10.4 mph - N/A   Clear
6:55 AM 1.4 °F -14.5 °F -5.8 °F 72% 30.56 in 10.0 mi North 10.4 mph - N/A   Clear
7:15 AM 1.4 °F -15.3 °F -5.8 °F 72% 30.56 in 10.0 mi North 11.5 mph - N/A   Clear
7:35 AM 1.4 °F -14.5 °F -5.8 °F 72% 30.57 in 10.0 mi NNW 10.4 mph - N/A   Clear
7:55 AM 1.4 °F -15.3 °F -4.0 °F 78% 30.58 in 10.0 mi NNW 11.5 mph - N/A   Clear
8:15 AM 3.2 °F -12.2 °F -5.8 °F 66% 30.59 in 10.0 mi NNW 10.4 mph - N/A   Clear
8:35 AM 3.2 °F -11.3 °F -5.8 °F 66% 30.60 in 10.0 mi NNW 9.2 mph - N/A   Clear
8:55 AM 3.2 °F -14.6 °F -5.8 °F 66% 30.61 in 10.0 mi North 13.8 mph - N/A   Clear
9:15 AM 3.2 °F -14.6 °F -4.0 °F 72% 30.62 in 10.0 mi NNW 13.8 mph - N/A   Clear
9:35 AM 5.0 °F -10.8 °F -5.8 °F 61% 30.61 in 10.0 mi NNW 11.5 mph - N/A   Clear
9:55 AM 6.8 °F -7.8 °F -2.2 °F 67% 30.61 in 10.0 mi North 10.4 mph - N/A   Clear
10:15 AM 6.8 °F -6.9 °F -5.8 °F 56% 30.60 in 10.0 mi NNW 9.2 mph - N/A   Clear
10:35 AM 6.8 °F -4.8 °F -2.2 °F 67% 30.61 in 10.0 mi North 6.9 mph - N/A   Clear
10:55 AM 6.8 °F -5.9 °F -4.0 °F 61% 30.61 in 10.0 mi North 8.1 mph - N/A   Clear
11:15 AM 8.6 °F -4.7 °F -4.0 °F 57% 30.60 in 10.0 mi NNW 9.2 mph - N/A   Clear
11:35 AM 8.6 °F -3.7 °F -2.2 °F 62% 30.60 in 10.0 mi North 8.1 mph - N/A   Clear
11:55 AM 10.4 °F -1.5 °F -0.4 °F 62% 30.59 in 10.0 mi NNW 8.1 mph - N/A   Clear
12:15 PM 10.4 °F 0.8 °F -2.2 °F 57% 30.59 in 10.0 mi NNW 5.8 mph - N/A   Clear
12:35 PM 10.4 °F 0.8 °F -2.2 °F 57% 30.57 in 10.0 mi North 5.8 mph - N/A   Clear
12:55 PM 10.4 °F 0.8 °F -0.4 °F 62% 30.56 in 10.0 mi North 5.8 mph - N/A   Clear
1:15 PM 10.4 °F -0.4 °F -2.2 °F 57% 30.56 in 10.0 mi North 6.9 mph - N/A   Clear
1:35 PM 10.4 °F -0.4 °F -0.4 °F 62% 30.56 in 10.0 mi NNW 6.9 mph - N/A   Clear
1:55 PM 10.4 °F 0.8 °F -0.4 °F 62% 30.56 in 10.0 mi North 5.8 mph - N/A   Clear
2:15 PM 10.4 °F 2.2 °F -2.2 °F 57% 30.55 in 10.0 mi NW 4.6 mph - N/A   Clear
2:35 PM 10.4 °F 2.2 °F -2.2 °F 57% 30.54 in 10.0 mi North 4.6 mph - N/A   Clear
2:55 PM 10.4 °F 4.0 °F -2.2 °F 57% 30.54 in 10.0 mi North 3.5 mph - N/A   Clear
3:15 PM 10.4 °F 2.2 °F -2.2 °F 57% 30.54 in 10.0 mi North 4.6 mph - N/A   Clear
3:35 PM 10.4 °F - -2.2 °F 57% 30.54 in 10.0 mi Calm Calm - N/A   Clear
3:55 PM 10.4 °F - -2.2 °F 57% 30.54 in 10.0 mi Calm Calm - N/A   Clear
4:15 PM 10.4 °F - -2.2 °F 57% 30.52 in 10.0 mi Calm Calm - N/A   Clear
4:35 PM 10.4 °F - -2.2 °F 57% 30.52 in 10.0 mi Calm Calm - N/A   Clear
4:55 PM 10.4 °F - -2.2 °F 57% 30.51 in 10.0 mi Calm Calm - N/A   Clear
5:15 PM 10.4 °F - -0.4 °F 62% 30.50 in 10.0 mi Calm Calm - N/A   Clear
5:35 PM 10.4 °F - -0.4 °F 62% 30.50 in 10.0 mi Calm Calm - N/A   Clear
5:55 PM 10.4 °F - -0.4 °F 62% 30.49 in 10.0 mi Calm Calm - N/A   Clear
6:15 PM 10.4 °F - -0.4 °F 62% 30.47 in 10.0 mi Calm Calm - N/A   Clear
6:35 PM 10.4 °F - 1.4 °F 67% 30.46 in 10.0 mi Calm Calm - N/A   Clear
6:55 PM 10.4 °F - 1.4 °F 67% 30.46 in 10.0 mi Calm Calm - N/A   Clear
7:35 PM 10.4 °F - 1.4 °F 67% 30.44 in 10.0 mi Calm Calm - N/A   Clear
7:55 PM 10.4 °F - 1.4 °F 67% 30.44 in 10.0 mi Calm Calm - N/A   Clear
8:15 PM 10.4 °F - 1.4 °F 67% 30.43 in 10.0 mi Calm Calm - N/A   Partly Cloudy
8:35 PM 10.4 °F - 1.4 °F 67% 30.43 in 10.0 mi Calm Calm - N/A   Scattered Clouds
8:55 PM 12.2 °F - 1.4 °F 62% 30.42 in 10.0 mi Calm Calm - N/A   Mostly Cloudy
9:15 PM 12.2 °F - 1.4 °F 62% 30.40 in 10.0 mi Calm Calm - N/A   Mostly Cloudy
9:35 PM 12.2 °F - 1.4 °F 62% 30.39 in 10.0 mi Calm Calm - N/A   Overcast
9:55 PM 12.2 °F 6.1 °F 1.4 °F 62% 30.38 in 10.0 mi NNW 3.5 mph - N/A   Overcast
10:15 PM 12.2 °F 6.1 °F 3.2 °F 67% 30.37 in 10.0 mi North 3.5 mph - N/A   Overcast
10:35 PM 12.2 °F 6.1 °F 3.2 °F 67% 30.36 in 10.0 mi NNW 3.5 mph - N/A   Overcast
10:55 PM 12.2 °F 4.3 °F 3.2 °F 67% 30.37 in 6.0 mi NW 4.6 mph - N/A   Overcast
11:15 PM 12.2 °F 2.9 °F 6.8 °F 79% 30.36 in 4.0 mi NW 5.8 mph - N/A   Overcast
11:35 PM 12.2 °F 4.3 °F 8.6 °F 85% 30.35 in 3.0 mi NNW 4.6 mph - N/A   Overcast
11:55 PM 12.2 °F 6.1 °F 8.6 °F 85% 30.34 in 1.8 mi NW 3.5 mph - N/A   Overcast